Location: Unspecified
(49.8670°N, 0.0000°E)
Time: 02:35:36
(UTC+00:00)

Courier 1B - Visible Passes

Search period start: 17 June 2019 00:00
Search period end: 27 June 2019 00:00
Orbit: 963 x 1209 km, 28.3° (Epoch: 16 June)

Date Brightness Start Highest point End Pass type
(mag) Time Alt. Az. Time Alt. Az. Time Alt. Az.
17 Jun 9.5 21:08:05 10° SSW 21:11:09 13° S 21:14:15 10° SSE visible
17 Jun 9.6 23:00:30 10° SSW 23:01:33 12° SSW 23:01:33 12° SSW visible
18 Jun 9.4 22:06:46 10° SSW 22:10:20 14° S 22:11:03 14° S visible
19 Jun 9.5 21:13:19 10° SSW 21:16:47 14° S 21:20:19 10° SSE visible
20 Jun 9.5 22:13:10 10° SSW 22:15:57 12° S 22:16:39 12° S visible
21 Jun 9.5 21:19:18 10° SSW 21:22:27 13° S 21:25:38 10° SSE visible
23 Jun 9.6 21:26:29 10° SSW 21:28:06 11° SSW 21:29:44 10° S visible
